Flag for France Weather past 2 weeks in Gustavia, Saint Barthélemy, France

Now
81 °F

Passing clouds.


Feels Like: 84 °F
Forecast: 79 / 84 °F
Wind: 13 mph from Southeast

Location: Juliana Airport - Saint Maarten

Current Time: May 7, 2015 at 12:49:03 AM

Latest Report: May 7, 2015 at 12:00 AM


Visibility: N/A

Pressure: N/A

Humidity: 70%

Dew point: 70 °F

Location of GustaviaLocation

Historic Weather in Gustavia — Graph

°F

Gustavia temperature yesterday

Maximum temperature yesterday: 84 °F (at 9:00 AM)
Minimum temperature yesterday: 79 °F (at 4:00 AM)
Average temperature yesterday: 82 °F

Past Weeks' High & Low Weather Summary

 TemperatureHumidityPressure
High86 °F (Apr 25, 1:00 PM)100% (May 5, 2:00 PM)30.15 "Hg (May 5, 2:00 PM)
Low48 °F (May 5, 2:00 PM)55% (Apr 22, 1:00 PM)29.89 "Hg (Apr 27, 4:00 PM)
Average82 °F72%30.00 "Hg
* Reported Apr 21 11:00 PM — May 6 11:00 PM, Gustavia, Weather by CustomWeather, © 2015

Note: Actual official high and low records may vary slightly from our data, if they occured in-between our weather recording intervals... More about our weather records

Advertising

Gustavia weather history for previous 24 hours

 ConditionsComfort  
Time TempWeatherWind HumidityBarometerVisibility
11:00 PM
Wed, May 6
81 °FPassing clouds.13 mph70%N/AN/A
10:00 PM81 °FPassing clouds.9 mph70%N/AN/A
9:00 PM81 °FPassing clouds.8 mph70%30.07 "HgN/A
8:00 PM81 °FPassing clouds.9 mph70%30.07 "HgN/A
7:00 PM81 °FPassing clouds.13 mph70%30.04 "HgN/A
6:00 PM82 °FPassing clouds.10 mph70%30.04 "HgN/A
5:00 PM82 °FScattered clouds.13 mph66%30.01 "HgN/A
4:00 PM84 °FScattered clouds.14 mph62%30.01 "HgN/A
3:00 PM84 °FPassing clouds.15 mph62%30.01 "HgN/A
2:00 PM84 °FPassing clouds.15 mph62%30.04 "HgN/A
1:00 PM84 °FPassing clouds.15 mph62%30.07 "HgN/A
12:00 PM84 °FScattered clouds.14 mph66%30.09 "HgN/A
11:00 AM84 °FScattered clouds.16 mph62%30.09 "HgN/A
10:00 AM84 °FScattered clouds.13 mph62%30.09 "HgN/A
9:00 AM84 °FPassing clouds.14 mph62%30.09 "HgN/A
8:00 AM82 °FScattered clouds.12 mph66%30.09 "HgN/A
7:00 AM81 °FPassing clouds.12 mph70%30.09 "HgN/A
6:00 AM81 °FPassing clouds.9 mph70%30.07 "HgN/A
5:00 AM81 °FPassing clouds.12 mph70%30.07 "HgN/A
4:00 AM79 °FPassing clouds.9 mph74%30.07 "HgN/A
3:00 AM81 °FPassing clouds.15 mph70%30.04 "HgN/A
2:00 AM81 °FPassing clouds.10 mph74%30.07 "HgN/A
1:00 AM81 °FPassing clouds.14 mph74%30.07 "HgN/A
12:00 AM81 °FPassing clouds.12 mph70%30.09 "HgN/A
Weather by CustomWeather, © 2015

See weather overviewHow to use our weather pages